[[{"header":{"parameterUnit":"m.s-1","parameterCategory":1,"la1":30.2991,"la2":30.254,"lo1":-89.0895,"lo2":-89.0444,"dy":0.0017,"dx":0.0017,"nx":28,"ny":28,"refTime":"2024-06-12T21:00:00:Z","depth":0,"parameterNumber":2,"parameterNumberName":"U-component_of_WINDS"},"data":[0,0,0,0,0,0,0,0,0,0,0,0,0,0,0,0,0,0,0,0,0,0,0,0,0,0,0,0,0,0,0,0,0,0,0,0,0,0,0,0,0,0,0,0,0,0,0,0,0,0,0,0,0,0,0,0,0,0,-1.4385,-1.4386,0,-1.4445,-1.4445,-1.4446,-1.4429,-1.4427,-1.4426,-1.4425,-1.4486,-1.4488,-1.4491,0,0,0,0,0,0,0,0,0,0,0,0,0,-1.4255,-1.4257,-1.4385,-1.4386,-1.4386,-1.4444,-1.4445,-1.4446,-1.4429,-1.4427,-1.4426,-1.4424,-1.4485,-1.4488,-1.4491,0,0,0,0,0,0,0,0,0,0,0,0,0,-1.4313,-1.4258,-1.4385,-1.4385,-1.4385,-1.4444,-1.4445,-1.4446,-1.4429,-1.4427,-1.4425,-1.4424,-1.4484,-1.4488,-1.4492,-1.4554,0,0,-1.4505,-1.4506,0,0,0,0,0,0,0,0,-1.4309,-1.4317,-1.4384,-1.4385,-1.4386,-1.4427,-1.4422,-1.4482,-1.443,-1.4413,-1.4425,-1.4423,-1.4468,-1.4473,-1.4488,-1.4557,-1.456,-1.4505,-1.4507,-1.4509,-1.451,0,0,0,0,0,0,0,-1.4305,-1.4315,-1.4408,-1.4385,-1.4386,-1.4381,-1.4388,-1.4433,-1.445,-1.4414,-1.4413,-1.442,-1.4468,-1.4484,-1.449,-1.4561,-1.4505,-1.4508,-1.4511,-1.4513,-1.4682,-1.4684,0,0,0,0,0,0,-1.4301,-1.4312,-1.4407,-1.441,-1.4342,-1.4385,-1.4392,-1.4416,-1.4449,-1.4453,-1.4422,-1.4419,-1.4478,-1.4485,-1.4492,-1.4566,-1.4509,-1.4513,-1.4515,-1.468,-1.4683,-1.4685,0,0,0,0,0,0,-1.4298,-1.431,-1.4404,-1.4361,-1.4372,-1.439,-1.4416,-1.4418,-1.4434,-1.4455,-1.4458,-1.4436,-1.4477,-1.4486,-1.4539,-1.4568,-1.4515,-1.4519,-1.4678,-1.4681,-1.4684,-1.4716,0,0,0,0,0,0,-1.4295,-1.4309,-1.4333,-1.4361,-1.4375,-1.445,-1.4418,-1.442,-1.4442,-1.4439,-1.4469,-1.4472,-1.4476,-1.4533,-1.4543,-1.4573,-1.4522,-1.4675,-1.4679,-1.4683,-1.4712,-1.472,-1.4726,0,0,0,0,0,-1.429,-1.434,-1.4334,-1.4346,-1.4405,-1.4452,-1.446,-1.4464,-1.4444,-1.4468,-1.4481,-1.4471,-1.4563,-1.4538,-1.4549,-1.4581,-1.4674,-1.4678,-1.4683,-1.4709,-1.4718,-1.4726,0,0,0,0,0,0,-1.4314,-1.4343,-1.4338,-1.4398,-1.4423,-1.4449,-1.448,-1.4473,-1.4504,-1.45,-1.4504,-1.4511,-1.4565,-1.4578,-1.455,-1.4643,-1.4615,-1.4623,-1.4632,-1.4641,-1.4647,-1.4643,-1.4525,0,0,0,0,0,-1.4327,-1.4362,-1.4386,-1.4437,-1.445,-1.4463,-1.4483,-1.4484,-1.451,-1.452,-1.4537,-1.4562,-1.4597,-1.462,-1.4653,-1.4714,-1.472,-1.4742,-1.4749,-1.4754,-1.476,-1.4793,-1.4802,-1.47,-1.47,-1.47,0,0,-1.4352,-1.4373,-1.4395,-1.4442,-1.4462,-1.4498,-1.4472,-1.4512,-1.4539,-1.4526,-1.4577,-1.459,-1.4618,-1.4676,-1.4702,-1.4689,-1.479,-1.476,-1.4764,-1.4767,-1.4798,-1.4808,-1.4817,-1.4703,-1.4703,-1.4702,0,0,-1.4418,-1.4438,-1.4482,-1.4501,-1.4531,-1.4539,-1.455,-1.4577,-1.4586,-1.4637,-1.4628,-1.466,-1.472,-1.474,-1.4758,-1.4831,-1.4822,-1.4841,-1.4877,-1.4909,-1.4917,-1.4924,-1.4949,-1.4958,-1.4847,-1.4847,-1.4847,0,-1.4446,-1.4502,-1.4505,-1.4546,-1.4567,-1.4557,-1.4601,-1.462,-1.4659,-1.4673,-1.4658,-1.4732,-1.4751,-1.4812,-1.483,-1.4845,-1.4857,-1.4838,-1.4916,-1.4923,-1.4929,-1.4953,-1.4963,-1.4849,-1.4849,-1.4849,-1.4849,0,-1.4535,-1.4573,-1.4605,-1.4643,-1.4667,-1.4709,-1.4719,-1.4743,-1.4742,-1.4751,-1.4803,-1.4825,-1.4861,-1.4876,-1.4876,-1.4938,-1.4928,-1.4914,-1.4887,-1.4941,-1.4964,-1.4973,-1.4852,-1.4852,-1.4851,-1.4851,0,0,-1.4617,-1.4656,-1.4668,-1.4684,-1.4716,-1.4745,-1.4787,-1.4823,-1.4843,-1.487,-1.4905,-1.4955,-1.4942,-1.4963,-1.4964,-1.4992,-1.5048,-1.4975,-1.4976,-1.4987,-1.5116,-1.5126,-1.5136,-1.5042,-1.5044,-1.5045,-1.5113,0,-1.4685,-1.4758,-1.4763,-1.4829,-1.4864,-1.4855,-1.4892,-1.4915,-1.4925,-1.4956,-1.4967,-1.5002,-1.4983,-1.4995,-1.5022,-1.5035,-1.5073,-1.503,-1.5074,-1.5075,-1.5066,-1.5148,-1.5159,-1.5222,-1.5122,-1.5124,-1.5125,0,-1.4774,-1.4803,-1.4873,-1.4899,-1.4914,-1.4947,-1.498,-1.501,-1.5035,-1.5041,-1.5063,-1.5061,-1.5103,-1.5074,-1.5132,-1.5102,-1.512,-1.5129,-1.5132,-1.5135,-1.5103,-1.5153,-1.5242,-1.5251,-1.5139,-1.5138,-1.5137,0,-1.4826,-1.4883,-1.4932,-1.4947,-1.4979,-1.5002,-1.5016,-1.504,-1.5061,-1.509,-1.5103,-1.5137,-1.5155,-1.518,-1.5186,-1.5165,-1.5244,-1.5216,-1.5248,-1.5248,-1.5265,-1.5264,-1.5357,-1.5278,-1.5278,-1.5278,-1.5277,0,-1.4901,-1.4944,-1.4956,-1.4986,-1.5034,-1.5038,-1.5085,-1.5098,-1.5119,-1.5151,-1.5146,-1.5175,-1.5182,-1.5213,-1.5218,-1.5265,-1.5273,-1.5278,-1.5279,-1.5278,-1.5277,-1.5289,-1.5285,-1.528,-1.528,-1.5279,-1.5279,0,-1.4967,-1.4977,-1.503,-1.5056,-1.5063,-1.5097,-1.5119,-1.5147,-1.5156,-1.5197,-1.5207,-1.5221,-1.5258,-1.5266,-1.531,-1.5313,-1.5367,-1.5364,-1.5359,-1.5358,-1.539,-1.5387,-1.5494,-1.5508,-1.542,-1.5421,-1.5422,0,-1.5014,-1.5046,-1.5076,-1.5097,-1.5112,-1.5146,-1.5168,-1.5173,-1.5195,-1.5227,-1.5251,-1.5287,-1.5316,-1.5374,-1.5388,-1.5421,-1.5418,-1.5454,-1.5423,-1.5421,-1.5418,-1.5415,-1.5418,-1.5459,-1.546,-1.5461,-1.5462,0,-1.5095,-1.5099,-1.513,-1.5163,-1.5189,-1.5215,-1.524,-1.5257,-1.5266,-1.5291,-1.5328,-1.5351,-1.5395,-1.543,-1.5463,-1.5477,-1.5471,-1.5471,-1.548,-1.5479,-1.5474,-1.5477,-1.5374,-1.5469,-1.5468,-1.5467,-1.5467,-1.5467,-1.5152,-1.5181,-1.5206,-1.524,-1.526,-1.5283,-1.5311,-1.5324,-1.5355,-1.5391,-1.5392,-1.5432,-1.5457,-1.55,-1.5516,-1.5547,-1.5536,-1.555,-1.5553,-1.5556,-1.5558,-1.547,-1.5553,-1.5553,-1.5553,-1.5553,-1.5553,0,-1.5233,-1.5248,-1.528,-1.5315,-1.5343,-1.5335,-1.5362,-1.5385,-1.542,-1.5443,-1.5472,-1.5514,-1.5548,-1.5564,-1.5598,-1.5619,-1.5617,-1.5628,-1.5626,-1.5629,-1.5567,-1.5555,-1.5629,-1.5629,-1.5629,-1.5629,-1.5629,-1.5629,-1.5278,-1.5325,-1.5331,-1.5388,-1.5403,-1.5442,-1.5458,-1.5479,-1.5498,-1.5545,-1.5573,-1.5584,-1.5604,-1.5639,-1.567,-1.5674,-1.5686,-1.5698,-1.57,-1.5641,-1.5634,-1.5626,-1.5615,-1.5701,-1.5701,-1.576,-1.576,-1.5761]},{"header":{"parameterUnit":"m.s-1","parameterCategory":1,"la1":30.2991,"la2":30.254,"lo1":-89.0895,"lo2":-89.0444,"dy":0.0017,"dx":0.0017,"nx":28,"ny":28,"refTime":"2024-06-12T21:00:00:Z","depth":0,"parameterNumber":3,"parameterNumberName":"V-component_of_WINDS"},"data":[0,0,0,0,0,0,0,0,0,0,0,0,0,0,0,0,0,0,0,0,0,0,0,0,0,0,0,0,0,0,0,0,0,0,0,0,0,0,0,0,0,0,0,0,0,0,0,0,0,0,0,0,0,0,0,0,0,0,-3.2214,-3.2215,0,-3.2249,-3.225,-3.225,-3.2205,-3.2204,-3.2202,-3.22,-3.2232,-3.2235,-3.2237,0,0,0,0,0,0,0,0,0,0,0,0,0,-3.2104,-3.2107,-3.2214,-3.2215,-3.2215,-3.2249,-3.225,-3.225,-3.2205,-3.2203,-3.2201,-3.22,-3.2232,-3.2234,-3.2237,0,0,0,0,0,0,0,0,0,0,0,0,0,-3.2147,-3.2107,-3.2214,-3.2197,-3.2196,-3.2249,-3.225,-3.225,-3.2206,-3.2203,-3.2201,-3.2199,-3.2231,-3.2234,-3.2238,-3.2308,0,0,-3.2248,-3.225,0,0,0,0,0,0,0,0,-3.2145,-3.2151,-3.2199,-3.2198,-3.2197,-3.222,-3.2223,-3.227,-3.2206,-3.2202,-3.22,-3.2198,-3.223,-3.2234,-3.2245,-3.231,-3.2311,-3.2249,-3.2251,-3.2252,-3.2253,0,0,0,0,0,0,0,-3.2142,-3.2149,-3.2228,-3.22,-3.2199,-3.2186,-3.219,-3.2231,-3.2229,-3.2202,-3.2199,-3.2204,-3.2229,-3.2242,-3.2246,-3.2311,-3.2249,-3.2252,-3.2254,-3.2255,-3.2435,-3.2438,0,0,0,0,0,0,-3.2141,-3.2147,-3.2227,-3.2229,-3.2164,-3.219,-3.2194,-3.2215,-3.2229,-3.2228,-3.2206,-3.2202,-3.2237,-3.2242,-3.2247,-3.233,-3.2252,-3.2256,-3.2258,-3.2433,-3.2436,-3.2439,0,0,0,0,0,0,-3.2139,-3.2149,-3.2225,-3.2187,-3.2196,-3.2195,-3.2219,-3.2217,-3.223,-3.2232,-3.223,-3.222,-3.2235,-3.2242,-3.2293,-3.2331,-3.2257,-3.2261,-3.243,-3.2434,-3.2437,-3.2498,0,0,0,0,0,0,-3.2136,-3.2148,-3.2176,-3.2188,-3.2198,-3.2273,-3.2221,-3.222,-3.2237,-3.2232,-3.2244,-3.2244,-3.2234,-3.2288,-3.2297,-3.2334,-3.2263,-3.2426,-3.2431,-3.2436,-3.2493,-3.2504,-3.2513,0,0,0,0,0,-3.2133,-3.2191,-3.2178,-3.2188,-3.2233,-3.2275,-3.2281,-3.2269,-3.224,-3.2267,-3.2268,-3.2244,-3.2325,-3.2294,-3.2303,-3.2342,-3.2424,-3.243,-3.2436,-3.2488,-3.2501,-3.2513,0,0,0,0,0,0,-3.2181,-3.2192,-3.2178,-3.2242,-3.2258,-3.2267,-3.2301,-3.2283,-3.2307,-3.2301,-3.2284,-3.2288,-3.2343,-3.2348,-3.2313,-3.2411,-3.237,-3.2378,-3.2406,-3.2419,-3.2429,-3.2426,-3.2266,0,0,0,0,0,-3.22,-3.2235,-3.2241,-3.2297,-3.2306,-3.2303,-3.2321,-3.2311,-3.2326,-3.2332,-3.2337,-3.2352,-3.2381,-3.24,-3.2427,-3.2493,-3.2495,-3.2524,-3.2535,-3.2543,-3.255,-3.2585,-3.2598,-3.2458,-3.2458,-3.2458,0,0,-3.2238,-3.2248,-3.2271,-3.2308,-3.2319,-3.2354,-3.2309,-3.2348,-3.2373,-3.2337,-3.2387,-3.2391,-3.2407,-3.2466,-3.2493,-3.2472,-3.2589,-3.255,-3.2557,-3.256,-3.2593,-3.2606,-3.2618,-3.2462,-3.2462,-3.2461,0,0,-3.2325,-3.2337,-3.2385,-3.2398,-3.2416,-3.2413,-3.2425,-3.2437,-3.2439,-3.2489,-3.2463,-3.2493,-3.2543,-3.2555,-3.2568,-3.2661,-3.2639,-3.267,-3.2723,-3.2757,-3.2768,-3.2778,-3.2811,-3.2823,-3.2677,-3.2677,-3.2677,0,-3.237,-3.2423,-3.2412,-3.2453,-3.247,-3.2441,-3.2489,-3.2501,-3.2527,-3.2538,-3.2515,-3.2578,-3.2586,-3.2648,-3.2671,-3.2682,-3.2694,-3.2668,-3.2768,-3.2778,-3.2786,-3.2818,-3.283,-3.2681,-3.268,-3.268,-3.268,0,-3.2477,-3.2515,-3.2551,-3.2578,-3.2599,-3.2643,-3.2637,-3.2659,-3.2648,-3.2647,-3.2698,-3.2707,-3.2735,-3.2749,-3.2737,-3.281,-3.2796,-3.2771,-3.2729,-3.2804,-3.2833,-3.2845,-3.2686,-3.2685,-3.2684,-3.2683,0,0,-3.2596,-3.2617,-3.2631,-3.2643,-3.2661,-3.2689,-3.2732,-3.2761,-3.278,-3.2799,-3.2834,-3.2878,-3.2854,-3.2869,-3.2858,-3.2889,-3.2962,-3.2859,-3.2859,-3.2878,-3.3042,-3.3061,-3.3075,-3.2948,-3.295,-3.2952,-3.3041,0,-3.2684,-3.2759,-3.275,-3.2822,-3.2856,-3.2829,-3.2866,-3.2881,-3.2882,-3.291,-3.291,-3.2941,-3.2908,-3.2917,-3.2946,-3.2947,-3.2994,-3.294,-3.2979,-3.298,-3.2976,-3.309,-3.311,-3.3194,-3.3052,-3.3054,-3.3055,0,-3.2796,-3.2821,-3.2897,-3.291,-3.2924,-3.2958,-3.2984,-3.3011,-3.3027,-3.3025,-3.3042,-3.3026,-3.3068,-3.3026,-3.3082,-3.3046,-3.3061,-3.3064,-3.3067,-3.307,-3.3022,-3.3096,-3.322,-3.3233,-3.3073,-3.3071,-3.307,0,-3.2875,-3.2927,-3.2979,-3.299,-3.3008,-3.3032,-3.304,-3.3054,-3.3072,-3.3094,-3.3106,-3.3132,-3.3146,-3.3167,-3.3158,-3.3128,-3.3216,-3.3173,-3.3215,-3.3216,-3.3235,-3.3234,-3.3363,-3.3245,-3.3245,-3.3245,-3.3244,0,-3.2974,-3.3021,-3.3015,-3.3047,-3.3099,-3.3088,-3.3139,-3.3144,-3.3156,-3.3188,-3.3165,-3.3195,-3.3182,-3.3211,-3.3204,-3.3252,-3.3258,-3.3257,-3.3255,-3.326,-3.326,-3.3269,-3.3263,-3.3248,-3.3247,-3.3247,-3.3246,0,-3.3071,-3.3069,-3.3124,-3.3136,-3.314,-3.3178,-3.3188,-3.3218,-3.3217,-3.3257,-3.3266,-3.3264,-3.3297,-3.3291,-3.3326,-3.3321,-3.3382,-3.3372,-3.3377,-3.3374,-3.3417,-3.3413,-3.3557,-3.3575,-3.3446,-3.3447,-3.3448,0,-3.3134,-3.317,-3.3187,-3.3207,-3.3218,-3.3251,-3.327,-3.3259,-3.328,-3.3301,-3.3328,-3.3359,-3.3383,-3.3436,-3.3438,-3.3465,-3.3455,-3.3504,-3.3459,-3.3463,-3.3456,-3.3454,-3.3457,-3.3513,-3.3514,-3.3515,-3.3516,0,-3.3246,-3.3243,-3.3272,-3.3302,-3.3325,-3.3347,-3.3367,-3.3384,-3.3376,-3.3399,-3.3434,-3.3453,-3.349,-3.352,-3.3546,-3.3552,-3.3533,-3.3531,-3.3542,-3.3546,-3.3548,-3.3548,-3.3401,-3.3527,-3.3526,-3.3525,-3.3525,-3.3524,-3.3328,-3.3359,-3.3376,-3.3409,-3.3423,-3.3442,-3.3471,-3.3474,-3.3503,-3.3534,-3.3525,-3.3564,-3.3578,-3.3611,-3.362,-3.365,-3.3631,-3.3647,-3.3652,-3.3656,-3.3661,-3.3544,-3.3654,-3.3654,-3.3653,-3.3653,-3.3653,0,-3.3439,-3.3449,-3.348,-3.3509,-3.3535,-3.3516,-3.3536,-3.3559,-3.3594,-3.361,-3.3635,-3.3674,-3.3704,-3.3708,-3.3736,-3.3758,-3.375,-3.3766,-3.3764,-3.3766,-3.3676,-3.3663,-3.3772,-3.3772,-3.3772,-3.3772,-3.3772,-3.3772,-3.35,-3.3551,-3.3551,-3.3609,-3.3618,-3.3657,-3.3671,-3.3688,-3.3701,-3.3746,-3.3771,-3.3774,-3.3785,-3.3814,-3.3841,-3.3841,-3.3852,-3.3871,-3.3868,-3.3784,-3.3772,-3.3761,-3.3749,-3.3874,-3.3874,-3.3956,-3.3957,-3.3957]}]]